When you browse on this site, cookies collect data to enhance your experience and personalize the content and advertising you see.
Visit our Privacy Policy to learn more. By continuing to use the site, you agree to this use of cookies and data.
  • în România
  • Lista ţărilor
  • Pe 7 zile
  • Temperatura apei
  • Meteo pe hartă
  • Widget-uri
  • user-avatar
    Intrare

    Meteo pe oră la Chester

    Astăzi, 25 Mai, Luni

    Timp Temperatura Precipitaţii Vânt Presiune Umiditate
    00:00 +10°C° 0 mm 1 m/s 774 mmHg 84%
    01:00 +9°C° 0 mm 1 m/s 774 mmHg 83%
    02:00 +9°C° 0 mm 1 m/s 774 mmHg 82%
    03:00 +8°C° 0 mm 1 m/s 774 mmHg 81%
    04:00 +9°C° 0 mm 1 m/s 774 mmHg 79%
    05:00 +10°C° 0 mm 1 m/s 774 mmHg 76%
    06:00 +10°C° 0 mm 2 m/s 774 mmHg 73%
    07:00 +13°C° 0 mm 2 m/s 774 mmHg 67%
    08:00 +15°C° 0 mm 2 m/s 774 mmHg 60%
    09:00 +17°C° 0 mm 3 m/s 774 mmHg 53%
    10:00 +18°C° 0 mm 3 m/s 774 mmHg 50%
    11:00 +19°C° 0 mm 3 m/s 774 mmHg 47%
    12:00 +20°C° 0 mm 3 m/s 774 mmHg 44%
    13:00 +20°C° 0 mm 3 m/s 774 mmHg 44%
    14:00 +20°C° 0 mm 4 m/s 774 mmHg 44%
    15:00 +20°C° 0 mm 4 m/s 774 mmHg 44%
    16:00 +19°C° 0 mm 4 m/s 774 mmHg 47%
    17:00 +18°C° 0 mm 3 m/s 774 mmHg 51%
    18:00 +18°C° 0 mm 3 m/s 774 mmHg 55%
    19:00 +16°C° 0 mm 3 m/s 774 mmHg 59%
    20:00 +14°C° 0 mm 2 m/s 774 mmHg 63%
    21:00 +12°C° 0 mm 2 m/s 775 mmHg 68%
    22:00 +12°C° 0 mm 2 m/s 775 mmHg 69%
    23:00 +12°C° 0 mm 2 m/s 775 mmHg 69%

    Mâine, 26 Mai, Marţi

    Timp Temperatura Precipitaţii Vânt Presiune Umiditate
    00:00 +13°C° 0 mm 2 m/s 775 mmHg 70%
    01:00 +13°C° 0 mm 2 m/s 775 mmHg 71%
    02:00 +13°C° 0 mm 2 m/s 775 mmHg 72%
    03:00 +13°C° 0 mm 1 m/s 775 mmHg 72%
    04:00 +13°C° 0 mm 1 m/s 775 mmHg 73%
    05:00 +13°C° 0 mm 1 m/s 775 mmHg 74%
    06:00 +14°C° 0 mm 1 m/s 775 mmHg 74%
    07:00 +15°C° 0 mm 1 m/s 775 mmHg 73%
    08:00 +16°C° 0 mm 1 m/s 775 mmHg 72%
    09:00 +16°C° 0 mm 2 m/s 775 mmHg 71%
    10:00 +17°C° 0 mm 2 m/s 775 mmHg 72%
    11:00 +17°C° 0 mm 2 m/s 775 mmHg 74%
    12:00 +17°C° 0 mm 3 m/s 775 mmHg 75%
    13:00 +18°C° 0 mm 3 m/s 775 mmHg 75%
    14:00 +18°C° 0 mm 3 m/s 775 mmHg 75%
    15:00 +18°C° 0 mm 3 m/s 775 mmHg 74%
    16:00 +17°C° 0 mm 3 m/s 775 mmHg 75%
    17:00 +17°C° 0 mm 3 m/s 775 mmHg 75%
    18:00 +17°C° 0 mm 3 m/s 775 mmHg 75%
    19:00 +14°C° 0 mm 3 m/s 775 mmHg 77%
    20:00 +13°C° 0 mm 3 m/s 776 mmHg 79%
    21:00 +12°C° 0 mm 2 m/s 776 mmHg 81%
    22:00 +12°C° 0 mm 2 m/s 776 mmHg 82%
    23:00 +10°C° 0 mm 2 m/s 776 mmHg 83%

    Poimâine, 27 Mai, Miercuri

    Timp Temperatura Precipitaţii Vânt Presiune Umiditate
    00:00 +9°C° 0 mm 2 m/s 776 mmHg 84%
    01:00 +9°C° 0 mm 2 m/s 776 mmHg 85%
    02:00 +9°C° 0 mm 2 m/s 776 mmHg 87%
    03:00 +9°C° 0 mm 2 m/s 776 mmHg 89%
    04:00 +10°C° 0 mm 2 m/s 777 mmHg 86%
    05:00 +10°C° 0 mm 2 m/s 777 mmHg 84%
    06:00 +12°C° 0 mm 2 m/s 777 mmHg 81%
    07:00 +14°C° 0 mm 2 m/s 777 mmHg 74%
    08:00 +15°C° 0 mm 2 m/s 777 mmHg 67%
    09:00 +17°C° 0 mm 3 m/s 777 mmHg 60%
    10:00 +17°C° 0 mm 3 m/s 777 mmHg 57%
    11:00 +18°C° 0 mm 3 m/s 777 mmHg 54%
    12:00 +19°C° 0 mm 3 m/s 776 mmHg 50%
    13:00 +19°C° 0 mm 3 m/s 776 mmHg 50%
    14:00 +19°C° 0 mm 3 m/s 776 mmHg 49%
    15:00 +19°C° 0 mm 3 m/s 776 mmHg 48%
    16:00 +18°C° 0 mm 3 m/s 776 mmHg 51%
    17:00 +17°C° 0 mm 3 m/s 776 mmHg 54%
    18:00 +17°C° 0 mm 3 m/s 775 mmHg 57%
    19:00 +15°C° 0 mm 2 m/s 775 mmHg 60%
    20:00 +13°C° 0 mm 2 m/s 776 mmHg 64%
    21:00 +11°C° 0 mm 1 m/s 776 mmHg 68%
    22:00 +11°C° 0 mm 1 m/s 776 mmHg 68%
    23:00 +10°C° 0 mm 1 m/s 776 mmHg 68%

    28 Mai, Joi

    Timp Temperatura Precipitaţii Vânt Presiune Umiditate
    00:00 +9°C° 0 mm 0 m/s 775 mmHg 69%
    01:00 +10°C° 0 mm 1 m/s 775 mmHg 69%
    02:00 +10°C° 0 mm 1 m/s 775 mmHg 69%
    03:00 +10°C° 0 mm 1 m/s 775 mmHg 69%
    04:00 +10°C° 0 mm 1 m/s 774 mmHg 70%
    05:00 +11°C° 0 mm 1 m/s 774 mmHg 72%
    06:00 +12°C° 0 mm 2 m/s 774 mmHg 73%
    07:00 +14°C° 0 mm 2 m/s 774 mmHg 70%
    08:00 +16°C° 0 mm 2 m/s 773 mmHg 67%
    09:00 +19°C° 0 mm 2 m/s 773 mmHg 64%
    10:00 +20°C° 0 mm 2 m/s 773 mmHg 60%
    11:00 +21°C° 0 mm 2 m/s 772 mmHg 56%
    12:00 +23°C° 0 mm 2 m/s 772 mmHg 52%
    13:00 +23°C° 0 mm 2 m/s 772 mmHg 52%
    14:00 +23°C° 0 mm 2 m/s 771 mmHg 52%
    15:00 +23°C° 0 mm 2 m/s 771 mmHg 53%
    16:00 +23°C° 0 mm 2 m/s 771 mmHg 56%
    17:00 +23°C° 0 mm 2 m/s 770 mmHg 60%
    18:00 +21°C° 0 mm 2 m/s 770 mmHg 64%
    19:00 +19°C° 0 mm 2 m/s 770 mmHg 70%
    20:00 +17°C° 0 mm 2 m/s 770 mmHg 76%
    21:00 +16°C° 0 mm 2 m/s 770 mmHg 82%
    22:00 +15°C° 0 mm 2 m/s 770 mmHg 83%
    23:00 +14°C° 0 mm 2 m/s 770 mmHg 84%

    29 Mai, Vineri

    Timp Temperatura Precipitaţii Vânt Presiune Umiditate
    00:00 +13°C° 0 mm 2 m/s 770 mmHg 85%
    01:00 +13°C° 0 mm 2 m/s 769 mmHg 85%
    02:00 +12°C° 0 mm 2 m/s 769 mmHg 86%
    03:00 +12°C° 0 mm 2 m/s 769 mmHg 87%
    04:00 +12°C° 0 mm 2 m/s 769 mmHg 83%
    05:00 +13°C° 0 mm 2 m/s 769 mmHg 79%
    06:00 +14°C° 0 mm 2 m/s 768 mmHg 76%
    07:00 +15°C° 0 mm 2 m/s 768 mmHg 71%
    08:00 +17°C° 0 mm 3 m/s 768 mmHg 66%
    09:00 +18°C° 0 mm 3 m/s 768 mmHg 61%
    10:00 +19°C° 0 mm 3 m/s 768 mmHg 59%
    11:00 +20°C° 0 mm 3 m/s 767 mmHg 58%
    12:00 +21°C° 0 mm 3 m/s 767 mmHg 57%
    13:00 +21°C° 0 mm 3 m/s 767 mmHg 58%
    14:00 +21°C° 0 mm 3 m/s 767 mmHg 59%
    15:00 +21°C° 0 mm 3 m/s 766 mmHg 60%
    16:00 +20°C° 0 mm 3 m/s 766 mmHg 63%
    17:00 +20°C° 0 mm 3 m/s 766 mmHg 66%
    18:00 +20°C° 0 mm 3 m/s 766 mmHg 69%
    19:00 +18°C° 0 mm 3 m/s 766 mmHg 75%
    20:00 +16°C° 0 mm 3 m/s 766 mmHg 80%
    21:00 +14°C° 0 mm 3 m/s 767 mmHg 86%
    22:00 +13°C° 0 mm 3 m/s 767 mmHg 87%
    23:00 +13°C° 0 mm 3 m/s 767 mmHg 88%

    30 Mai, Sâmbătă

    Timp Temperatura Precipitaţii Vânt Presiune Umiditate
    00:00 +12°C° 0 mm 3 m/s 767 mmHg 89%
    01:00 +12°C° 0 mm 3 m/s 767 mmHg 89%
    02:00 +11°C° 0 mm 3 m/s 767 mmHg 88%
    03:00 +11°C° 0 mm 3 m/s 767 mmHg 88%
    04:00 +11°C° 0 mm 3 m/s 767 mmHg 85%
    05:00 +11°C° 0 mm 3 m/s 767 mmHg 83%
    06:00 +11°C° 0 mm 3 m/s 767 mmHg 81%
    07:00 +13°C° 0 mm 3 m/s 767 mmHg 74%
    08:00 +14°C° 0 mm 3 m/s 767 mmHg 68%
    09:00 +17°C° 0 mm 3 m/s 767 mmHg 61%
    10:00 +18°C° 0 mm 4 m/s 767 mmHg 60%
    11:00 +19°C° 0 mm 4 m/s 767 mmHg 58%
    12:00 +20°C° 0 mm 4 m/s 767 mmHg 56%
    13:00 +20°C° 0 mm 4 m/s 767 mmHg 56%
    14:00 +20°C° 0 mm 3 m/s 767 mmHg 56%
    15:00 +21°C° 0 mm 3 m/s 766 mmHg 56%
    16:00 +20°C° 0 mm 3 m/s 766 mmHg 59%
    17:00 +20°C° 0 mm 3 m/s 766 mmHg 63%
    18:00 +19°C° 0 mm 2 m/s 766 mmHg 66%
    19:00 +18°C° 0 mm 2 m/s 766 mmHg 69%
    20:00 +17°C° 0 mm 2 m/s 767 mmHg 72%
    21:00 +16°C° 0 mm 2 m/s 767 mmHg 76%
    22:00 +15°C° 0 mm 2 m/s 767 mmHg 77%
    23:00 +15°C° 0 mm 2 m/s 767 mmHg 78%
    Arată mai mult